Regional Weather Roundup
Issued by NWS Kansas City/Pleasant Hill, MO

Home | Current Version | Previous Version | Text Only | Print | Product List | Glossary On
Versions: 1 2 3 4 5 6 7 8 9 10 11 12 13 14 15 16 17 18 19 20 21 22 23 24 25 26 27 28
000
ASUS43 KEAX 051710
RWREAX

WEATHER ROUNDUP FOR EASTERN KANSAS AND NORTHWEST MISSOURI
NATIONAL WEATHER SERVICE KANSAS CITY/PLEASANT HILL MO
1200 PM CDT THU MAY 05 2016

KSZ040-057-103>105-MOZ028-029-037-043-051800-
...KANSAS CITY METROPOLITAN AREA...

CITY           SKY/WX    TMP DP  RH WIND       PRES   REMARKS
K.C. INTL      PTSUNNY   68  39  34 N6        30.11R
K.C. DOWNTOWN  SUNNY     68  38  33 VRB5      30.10R
LEES SUMMIT    SUNNY     68  39  34 VRB5      30.11R
OLATHE - IXD   SUNNY     68  42  38 VRB5      30.11S
OLATHE - OJC   SUNNY     68  38  33 VRB7      30.10S
LAWRENCE       SUNNY     70  43  37 MISG      30.10S

$$

MOZ001>008-011>017-020>025-030>033-038>040-044>046-053-054-051800-
...NORTHERN AND CENTRAL MISSOURI...

CITY           SKY/WX    TMP DP  RH WIND       PRES   REMARKS
ST. JOSEPH     SUNNY     67  36  31 VRB5      30.11R
MOSBY          SUNNY     66  34  30 NE3       30.10S
WARRENSBURG    SUNNY     66  34  30 N8        30.10R
WHITEMAN AFB   MOSUNNY   66  35  31 N7        30.09R
CLINTON        SUNNY     66  39  37 N8G16     30.10S
SEDALIA        SUNNY     68  34  28 N13G18    30.10S
WARSAW         NOT AVBL
CHILLICOTHE      N/A     67  36  31 MISG      30.11R
KIRKSVILLE     SUNNY     63  37  38 N9        30.10R

$$

MOZ041-047>049-056>058-063>065-088>090-097-051800-
...EASTERN AND SOUTHERN MISSOURI...

CITY           SKY/WX    TMP DP  RH WIND       PRES   REMARKS
ST. LOUIS INTL MOSUNNY   61  39  44 N16G22    30.05R
SPIRIT OF STL  MOSUNNY   60  41  49 N8        30.05R
COLUMBIA       SUNNY     63  34  33 N16       30.08R
JEFFERSON CITY SUNNY     64  30  27 N12G20    30.07R
ROLLA          SUNNY     61  38  42 N15       30.04S
OSAGE BEACH    SUNNY     64  30  27 N10G20    30.08S
SPRINGFIELD    SUNNY     68  39  34 NW15      30.07R
BRANSON        SUNNY     68  37  32 NW14G23   30.07S
JOPLIN         SUNNY     70  45  40 N14       30.10R
WEST PLAINS    SUNNY     67  33  28 N10G25    30.04S

$$

IAZ060-094-KSZ022-034>040-054-083-096-NEZ052-066-093-051800-
...KANSAS...SOUTHEAST NEBRASKA AND IOWA...

CITY           SKY/WX    TMP DP  RH WIND       PRES   REMARKS
TOPEKA         SUNNY     71  44  37 NW5       30.10S
MANHATTAN      SUNNY     73  39  29 CALM      30.10F
EMPORIA        SUNNY     71  37  28 VRB6      30.10F
CHANUTE        SUNNY     72  42  34 NW9       30.10S
WICHITA        SUNNY     36  33  89 N5        30.12S WCI  32
OMAHA          MOSUNNY   69  42  37 CALM      30.09S
LINCOLN        SUNNY     72  37  28 VRB3      30.11S
FALLS CITY     SUNNY     69  43  38 VRB3      30.10S
LAMONI         SUNNY     64  37  36 VRB6      30.10R
DES MOINES     MOSUNNY   64  32  30 CALM      30.10F

$$





USA.gov is the U.S. government's official web portal to all federal, state and local government web resources and services.